Time,TemperatureF,DewpointF,PressureIn,WindDirection,WindDirectionDegrees,WindSpeedMPH,WindSpeedGustMPH,Humidity,HourlyPrecipIn,Conditions,Clouds,dailyrainin,SoftwareType,DateUTC
2015-05-23 00:00:00,56.4,47.5,30.28,NW,310,0.0,0.0,72,0.00,,,0.00,vanprod-2.5,2015-05-23 04:00:00,
2015-05-23 00:05:00,56.5,47.6,30.28,NW,310,0.0,0.0,72,0.00,,,0.00,vanprod-2.5,2015-05-23 04:05:00,
2015-05-23 00:10:00,56.5,47.6,30.28,NW,310,0.0,0.0,72,0.00,,,0.00,vanprod-2.5,2015-05-23 04:10:00,
2015-05-23 00:15:00,56.2,47.7,30.29,NW,310,0.0,0.0,73,0.00,,,0.00,vanprod-2.5,2015-05-23 04:15:00,
2015-05-23 00:20:00,55.8,47.6,30.29,NW,310,0.0,0.0,74,0.00,,,0.00,vanprod-2.5,2015-05-23 04:20:00,
2015-05-23 00:25:00,55.6,47.8,30.29,NW,310,0.0,0.0,75,0.00,,,0.00,vanprod-2.5,2015-05-23 04:25:00,
2015-05-23 00:30:00,55.7,47.6,30.29,NW,310,0.0,0.0,74,0.00,,,0.00,vanprod-2.5,2015-05-23 04:30:00,
2015-05-23 00:35:00,55.9,47.7,30.29,NW,310,0.0,0.0,74,0.00,,,0.00,vanprod-2.5,2015-05-23 04:35:00,
2015-05-23 00:40:00,55.9,47.7,30.29,NW,310,0.0,0.0,74,0.00,,,0.00,vanprod-2.5,2015-05-23 04:40:00,
2015-05-23 00:45:00,55.9,47.4,30.29,NW,310,0.0,0.0,73,0.00,,,0.00,vanprod-2.5,2015-05-23 04:45:00,
2015-05-23 00:50:00,55.8,48.0,30.29,NW,310,0.0,0.0,75,0.00,,,0.00,vanprod-2.5,2015-05-23 04:50:00,
2015-05-23 00:55:00,55.3,47.5,30.29,NW,310,0.0,0.0,75,0.00,,,0.00,vanprod-2.5,2015-05-23 04:55:00,
2015-05-23 01:00:00,54.9,47.1,30.29,NW,310,0.0,0.0,75,0.00,,,0.00,vanprod-2.5,2015-05-23 05:00:00,
2015-05-23 01:05:00,55.0,47.2,30.29,NW,310,0.0,0.0,75,0.00,,,0.00,vanprod-2.5,2015-05-23 05:05:00,
2015-05-23 01:10:00,54.9,47.1,30.29,NW,310,0.0,0.0,75,0.00,,,0.00,vanprod-2.5,2015-05-23 05:10:00,
2015-05-23 01:15:00,54.4,46.7,30.29,NW,310,0.0,0.0,75,0.00,,,0.00,vanprod-2.5,2015-05-23 05:15:00,
2015-05-23 01:20:00,53.9,46.9,30.29,NW,310,0.0,0.0,77,0.00,,,0.00,vanprod-2.5,2015-05-23 05:20:00,
2015-05-23 01:25:00,53.9,47.2,30.29,NW,310,0.0,0.0,78,0.00,,,0.00,vanprod-2.5,2015-05-23 05:25:00,
2015-05-23 01:30:00,54.1,47.1,30.29,NW,310,0.0,0.0,77,0.00,,,0.00,vanprod-2.5,2015-05-23 05:30:00,
2015-05-23 01:35:00,54.0,47.0,30.29,NW,310,0.0,0.0,77,0.00,,,0.00,vanprod-2.5,2015-05-23 05:35:00,
2015-05-23 01:40:00,53.9,46.9,30.29,NW,310,0.0,0.0,77,0.00,,,0.00,vanprod-2.5,2015-05-23 05:40:00,
2015-05-23 01:45:00,53.9,46.9,30.29,NW,310,0.0,0.0,77,0.00,,,0.00,vanprod-2.5,2015-05-23 05:45:00,
2015-05-23 01:50:00,54.0,46.6,30.29,NW,310,0.0,0.0,76,0.00,,,0.00,vanprod-2.5,2015-05-23 05:50:00,
2015-05-23 01:55:00,54.0,46.6,30.28,NW,310,0.0,0.0,76,0.00,,,0.00,vanprod-2.5,2015-05-23 05:55:00,
2015-05-23 02:00:00,53.8,46.8,30.29,NW,310,0.0,0.0,77,0.00,,,0.00,vanprod-2.5,2015-05-23 06:00:00,
2015-05-23 02:05:00,53.8,46.4,30.29,NW,310,0.0,0.0,76,0.00,,,0.00,vanprod-2.5,2015-05-23 06:05:00,
2015-05-23 02:10:00,53.6,46.6,30.29,NW,310,0.0,0.0,77,0.00,,,0.00,vanprod-2.5,2015-05-23 06:10:00,
2015-05-23 02:15:00,53.4,46.4,30.29,NW,310,0.0,0.0,77,0.00,,,0.00,vanprod-2.5,2015-05-23 06:15:00,
2015-05-23 02:25:00,54.0,46.6,30.29,NW,310,0.0,0.0,76,0.00,,,0.00,vanprod-2.5,2015-05-23 06:25:00,
2015-05-23 02:30:00,54.3,46.2,30.29,NW,310,0.0,0.0,74,0.00,,,0.00,vanprod-2.5,2015-05-23 06:30:00,
2015-05-23 02:35:00,54.2,46.1,30.29,ENE,68,0.0,1.0,74,0.00,,,0.00,vanprod-2.5,2015-05-23 06:35:00,
2015-05-23 02:40:00,54.5,45.7,30.29,ENE,70,1.0,1.0,72,0.00,,,0.00,vanprod-2.5,2015-05-23 06:40:00,
2015-05-23 02:45:00,54.6,45.4,30.29,ENE,63,0.0,0.0,71,0.00,,,0.00,vanprod-2.5,2015-05-23 06:45:00,
2015-05-23 02:50:00,54.3,44.7,30.29,ENE,76,0.0,1.0,70,0.00,,,0.00,vanprod-2.5,2015-05-23 06:50:00,
2015-05-23 02:55:00,54.3,44.7,30.29,ENE,72,0.0,0.0,70,0.00,,,0.00,vanprod-2.5,2015-05-23 06:55:00,
2015-05-23 03:00:00,54.2,44.6,30.29,ENE,62,0.0,0.0,70,0.00,,,0.00,vanprod-2.5,2015-05-23 07:00:00,
2015-05-23 03:05:00,54.0,44.4,30.29,ENE,63,0.0,0.0,70,0.00,,,0.00,vanprod-2.5,2015-05-23 07:05:00,
2015-05-23 03:10:00,54.0,44.4,30.29,ENE,63,0.0,0.0,70,0.00,,,0.00,vanprod-2.5,2015-05-23 07:10:00,
2015-05-23 03:15:00,53.8,44.3,30.29,ENE,63,0.0,0.0,70,0.00,,,0.00,vanprod-2.5,2015-05-23 07:15:00,
2015-05-23 03:20:00,53.6,44.1,30.29,ENE,64,0.0,1.0,70,0.00,,,0.00,vanprod-2.5,2015-05-23 07:20:00,
2015-05-23 03:25:00,53.6,44.4,30.29,ENE,70,0.0,0.0,71,0.00,,,0.00,vanprod-2.5,2015-05-23 07:25:00,
2015-05-23 03:30:00,53.4,44.2,30.29,ENE,70,0.0,0.0,71,0.00,,,0.00,vanprod-2.5,2015-05-23 07:30:00,
2015-05-23 03:35:00,53.0,44.2,30.30,ENE,70,0.0,0.0,72,0.00,,,0.00,vanprod-2.5,2015-05-23 07:35:00,
2015-05-23 03:40:00,52.4,44.4,30.30,ENE,70,0.0,0.0,74,0.00,,,0.00,vanprod-2.5,2015-05-23 07:40:00,
2015-05-23 03:45:00,52.3,44.6,30.30,ENE,76,0.0,0.0,75,0.00,,,0.00,vanprod-2.5,2015-05-23 07:45:00,
2015-05-23 03:50:00,52.2,44.5,30.30,ENE,76,0.0,0.0,75,0.00,,,0.00,vanprod-2.5,2015-05-23 07:50:00,
2015-05-23 03:55:00,52.0,44.3,30.30,ENE,76,0.0,0.0,75,0.00,,,0.00,vanprod-2.5,2015-05-23 07:55:00,
2015-05-23 04:00:00,52.2,44.5,30.30,East,81,0.0,1.0,75,0.00,,,0.00,vanprod-2.5,2015-05-23 08:00:00,
2015-05-23 04:05:00,52.3,44.6,30.30,East,80,0.0,0.0,75,0.00,,,0.00,vanprod-2.5,2015-05-23 08:05:00,
2015-05-23 04:10:00,52.3,44.3,30.30,East,90,0.0,1.0,74,0.00,,,0.00,vanprod-2.5,2015-05-23 08:10:00,
2015-05-23 04:15:00,52.4,44.4,30.30,East,79,0.0,0.0,74,0.00,,,0.00,vanprod-2.5,2015-05-23 08:15:00,
2015-05-23 04:20:00,52.3,43.9,30.30,ENE,78,1.0,2.0,73,0.00,,,0.00,vanprod-2.5,2015-05-23 08:20:00,
2015-05-23 04:25:00,52.6,43.8,30.30,ENE,74,1.0,1.0,72,0.00,,,0.00,vanprod-2.5,2015-05-23 08:25:00,
2015-05-23 04:30:00,52.8,43.7,30.30,East,79,1.0,1.0,71,0.00,,,0.00,vanprod-2.5,2015-05-23 08:30:00,
2015-05-23 04:35:00,52.7,43.9,30.31,ENE,68,1.0,1.0,72,0.00,,,0.00,vanprod-2.5,2015-05-23 08:35:00,
2015-05-23 04:40:00,52.6,43.8,30.31,ENE,78,2.0,2.0,72,0.00,,,0.00,vanprod-2.5,2015-05-23 08:40:00,
2015-05-23 04:45:00,52.6,43.5,30.31,ENE,73,2.0,2.0,71,0.00,,,0.00,vanprod-2.5,2015-05-23 08:45:00,
2015-05-23 04:50:00,52.7,43.6,30.31,ENE,69,2.0,2.0,71,0.00,,,0.00,vanprod-2.5,2015-05-23 08:50:00,
2015-05-23 04:55:00,52.6,43.5,30.31,East,80,1.0,2.0,71,0.00,,,0.00,vanprod-2.5,2015-05-23 08:55:00,
2015-05-23 05:00:00,52.6,43.5,30.32,ENE,69,1.0,3.0,71,0.00,,,0.00,vanprod-2.5,2015-05-23 09:00:00,
2015-05-23 05:05:00,52.5,43.4,30.32,ENE,60,1.0,1.0,71,0.00,,,0.00,vanprod-2.5,2015-05-23 09:05:00,
2015-05-23 05:10:00,52.4,43.3,30.32,ENE,64,0.0,0.0,71,0.00,,,0.00,vanprod-2.5,2015-05-23 09:10:00,
2015-05-23 05:15:00,52.3,43.2,30.32,ENE,68,1.0,1.0,71,0.00,,,0.00,vanprod-2.5,2015-05-23 09:15:00,
2015-05-23 05:20:00,52.3,43.2,30.32,East,82,1.0,1.0,71,0.00,,,0.00,vanprod-2.5,2015-05-23 09:20:00,
2015-05-23 05:25:00,52.2,43.5,30.32,ENE,77,0.0,1.0,72,0.00,,,0.00,vanprod-2.5,2015-05-23 09:25:00,
2015-05-23 05:30:00,52.1,43.7,30.33,ENE,77,1.0,1.0,73,0.00,,,0.00,vanprod-2.5,2015-05-23 09:30:00,
2015-05-23 05:35:00,52.0,43.6,30.33,ENE,77,0.0,1.0,73,0.00,,,0.00,vanprod-2.5,2015-05-23 09:35:00,
2015-05-23 05:40:00,52.0,43.3,30.33,ENE,77,0.0,0.0,72,0.00,,,0.00,vanprod-2.5,2015-05-23 09:40:00,
2015-05-23 05:45:00,52.0,44.0,30.33,ENE,62,0.0,0.0,74,0.00,,,0.00,vanprod-2.5,2015-05-23 09:45:00,
2015-05-23 05:50:00,51.8,43.8,30.33,ENE,67,0.0,0.0,74,0.00,,,0.00,vanprod-2.5,2015-05-23 09:50:00,
2015-05-23 05:55:00,51.8,43.8,30.33,ENE,69,0.0,0.0,74,0.00,,,0.00,vanprod-2.5,2015-05-23 09:55:00,
2015-05-23 06:00:00,51.9,43.9,30.33,ENE,69,0.0,0.0,74,0.00,,,0.00,vanprod-2.5,2015-05-23 10:00:00,
2015-05-23 06:05:00,51.8,44.1,30.34,ENE,69,0.0,0.0,75,0.00,,,0.00,vanprod-2.5,2015-05-23 10:05:00,
2015-05-23 06:10:00,51.8,43.8,30.34,ENE,72,1.0,1.0,74,0.00,,,0.00,vanprod-2.5,2015-05-23 10:10:00,
2015-05-23 06:15:00,51.8,43.8,30.34,ENE,77,1.0,2.0,74,0.00,,,0.00,vanprod-2.5,2015-05-23 10:15:00,
2015-05-23 06:20:00,51.9,43.9,30.34,ENE,78,1.0,2.0,74,0.00,,,0.00,vanprod-2.5,2015-05-23 10:20:00,
2015-05-23 06:25:00,51.9,43.9,30.35,East,83,1.0,0.0,74,0.00,,,0.00,vanprod-2.5,2015-05-23 10:25:00,
2015-05-23 06:30:00,51.9,43.9,30.35,ENE,57,0.0,0.0,74,0.00,,,0.00,vanprod-2.5,2015-05-23 10:30:00,
2015-05-23 06:35:00,52.0,44.0,30.34,NE,56,0.0,0.0,74,0.00,,,0.00,vanprod-2.5,2015-05-23 10:35:00,
2015-05-23 06:40:00,52.2,44.2,30.35,NE,56,0.0,0.0,74,0.00,,,0.00,vanprod-2.5,2015-05-23 10:40:00,
2015-05-23 06:45:00,52.2,44.2,30.35,NE,56,0.0,0.0,74,0.00,,,0.00,vanprod-2.5,2015-05-23 10:45:00,
2015-05-23 06:50:00,52.2,44.5,30.35,NE,56,0.0,1.0,75,0.00,,,0.00,vanprod-2.5,2015-05-23 10:50:00,
2015-05-23 06:55:00,52.2,44.5,30.35,ENE,58,0.0,0.0,75,0.00,,,0.00,vanprod-2.5,2015-05-23 10:55:00,
2015-05-23 07:00:00,52.3,44.6,30.35,ENE,58,0.0,0.0,75,0.00,,,0.00,vanprod-2.5,2015-05-23 11:00:00,
2015-05-23 07:05:00,52.4,44.7,30.35,ENE,70,1.0,1.0,75,0.00,,,0.00,vanprod-2.5,2015-05-23 11:05:00,
2015-05-23 07:10:00,52.5,44.5,30.35,ENE,78,1.0,0.0,74,0.00,,,0.00,vanprod-2.5,2015-05-23 11:10:00,
2015-05-23 07:15:00,52.5,44.5,30.36,ENE,75,0.0,1.0,74,0.00,,,0.00,vanprod-2.5,2015-05-23 11:15:00,
2015-05-23 07:20:00,52.6,44.9,30.36,ENE,65,0.0,0.0,75,0.00,,,0.00,vanprod-2.5,2015-05-23 11:20:00,
2015-05-23 07:25:00,52.6,44.9,30.36,NE,56,1.0,1.0,75,0.00,,,0.00,vanprod-2.5,2015-05-23 11:25:00,
2015-05-23 07:30:00,52.7,44.7,30.36,ENE,66,3.0,3.0,74,0.00,,,0.00,vanprod-2.5,2015-05-23 11:30:00,
2015-05-23 07:35:00,52.7,45.0,30.36,ENE,70,2.0,2.0,75,0.00,,,0.00,vanprod-2.5,2015-05-23 11:35:00,
2015-05-23 07:40:00,52.7,45.4,30.36,ENE,72,0.0,0.0,76,0.00,,,0.00,vanprod-2.5,2015-05-23 11:40:00,
2015-05-23 07:45:00,52.8,45.8,30.37,ENE,72,0.0,0.0,77,0.00,,,0.00,vanprod-2.5,2015-05-23 11:45:00,
2015-05-23 07:50:00,53.1,46.4,30.37,ENE,72,0.0,0.0,78,0.00,,,0.00,vanprod-2.5,2015-05-23 11:50:00,
2015-05-23 07:55:00,53.3,46.3,30.37,ENE,72,0.0,0.0,77,0.00,,,0.00,vanprod-2.5,2015-05-23 11:55:00,
2015-05-23 08:00:00,53.6,46.6,30.37,ENE,72,0.0,0.0,77,0.00,,,0.00,vanprod-2.5,2015-05-23 12:00:00,
2015-05-23 08:05:00,53.9,46.5,30.37,ENE,72,0.0,0.0,76,0.00,,,0.00,vanprod-2.5,2015-05-23 12:05:00,
2015-05-23 08:10:00,54.1,46.7,30.37,ENE,72,0.0,0.0,76,0.00,,,0.00,vanprod-2.5,2015-05-23 12:10:00,
2015-05-23 08:15:00,54.4,47.4,30.38,ENE,72,0.0,0.0,77,0.00,,,0.00,vanprod-2.5,2015-05-23 12:15:00,
2015-05-23 08:20:00,54.6,46.8,30.37,SE,144,0.0,0.0,75,0.00,,,0.00,vanprod-2.5,2015-05-23 12:20:00,
2015-05-23 08:25:00,54.9,46.8,30.38,SE,144,0.0,0.0,74,0.00,,,0.00,vanprod-2.5,2015-05-23 12:25:00,
2015-05-23 08:30:00,55.1,47.0,30.38,SE,144,0.0,0.0,74,0.00,,,0.00,vanprod-2.5,2015-05-23 12:30:00,
2015-05-23 08:35:00,55.7,47.2,30.38,SE,140,0.0,0.0,73,0.00,,,0.00,vanprod-2.5,2015-05-23 12:35:00,
2015-05-23 08:40:00,56.4,47.5,30.38,ENE,66,1.0,0.0,72,0.00,,,0.00,vanprod-2.5,2015-05-23 12:40:00,
2015-05-23 08:45:00,56.8,47.1,30.38,SSE,162,1.0,1.0,70,0.00,,,0.00,vanprod-2.5,2015-05-23 12:45:00,
2015-05-23 08:50:00,57.2,47.1,30.38,SSE,158,0.0,0.0,69,0.00,,,0.00,vanprod-2.5,2015-05-23 12:50:00,
2015-05-23 08:55:00,57.7,47.6,30.38,SSE,151,0.0,1.0,69,0.00,,,0.00,vanprod-2.5,2015-05-23 12:55:00,
2015-05-23 09:00:00,58.6,48.5,30.38,SSE,163,1.0,1.0,69,0.00,,,0.00,vanprod-2.5,2015-05-23 13:00:00,
2015-05-23 09:05:00,59.4,49.6,30.38,SSE,158,0.0,0.0,70,0.00,,,0.00,vanprod-2.5,2015-05-23 13:05:00,
2015-05-23 09:10:00,59.7,48.3,30.39,South,187,3.0,4.0,66,0.00,,,0.00,vanprod-2.5,2015-05-23 13:10:00,
2015-05-23 09:15:00,59.8,48.0,30.39,South,179,2.0,2.0,65,0.00,,,0.00,vanprod-2.5,2015-05-23 13:15:00,
2015-05-23 09:20:00,60.0,49.0,30.38,South,180,1.0,3.0,67,0.00,,,0.00,vanprod-2.5,2015-05-23 13:20:00,
2015-05-23 09:25:00,60.3,49.3,30.38,SSE,158,1.0,2.0,67,0.00,,,0.00,vanprod-2.5,2015-05-23 13:25:00,
2015-05-23 09:30:00,60.6,49.6,30.39,SSW,209,2.0,3.0,67,0.00,,,0.00,vanprod-2.5,2015-05-23 13:30:00,
2015-05-23 09:35:00,60.8,50.2,30.39,SSE,157,0.0,2.0,68,0.00,,,0.00,vanprod-2.5,2015-05-23 13:35:00,
2015-05-23 09:40:00,60.9,50.3,30.39,SSE,161,0.0,0.0,68,0.00,,,0.00,vanprod-2.5,2015-05-23 13:40:00,
2015-05-23 09:45:00,61.3,51.1,30.39,SSE,155,0.0,0.0,69,0.00,,,0.00,vanprod-2.5,2015-05-23 13:45:00,
2015-05-23 09:50:00,61.8,50.7,30.38,SSE,157,2.0,2.0,67,0.00,,,0.00,vanprod-2.5,2015-05-23 13:50:00,
2015-05-23 09:55:00,62.3,50.8,30.38,SSE,156,2.0,3.0,66,0.00,,,0.00,vanprod-2.5,2015-05-23 13:55:00,
2015-05-23 10:00:00,62.6,51.9,30.38,SE,143,0.0,0.0,68,0.00,,,0.00,vanprod-2.5,2015-05-23 14:00:00,
2015-05-23 10:05:00,63.0,51.9,30.39,North,3,0.0,0.0,67,0.00,,,0.00,vanprod-2.5,2015-05-23 14:05:00,
2015-05-23 10:10:00,63.7,53.0,30.38,SSE,159,0.0,1.0,68,0.00,,,0.00,vanprod-2.5,2015-05-23 14:10:00,
2015-05-23 10:15:00,64.0,53.6,30.38,East,100,1.0,0.0,69,0.00,,,0.00,vanprod-2.5,2015-05-23 14:15:00,
2015-05-23 10:20:00,64.5,53.3,30.38,ENE,71,1.0,3.0,67,0.00,,,0.00,vanprod-2.5,2015-05-23 14:20:00,
2015-05-23 10:25:00,64.6,53.8,30.39,SE,125,1.0,4.0,68,0.00,,,0.00,vanprod-2.5,2015-05-23 14:25:00,
2015-05-23 10:30:00,64.9,52.9,30.39,South,186,0.0,2.0,65,0.00,,,0.00,vanprod-2.5,2015-05-23 14:30:00,
2015-05-23 10:35:00,65.4,53.3,30.38,WSW,243,0.0,0.0,65,0.00,,,0.00,vanprod-2.5,2015-05-23 14:35:00,
2015-05-23 10:40:00,66.1,54.4,30.38,South,189,1.0,2.0,66,0.00,,,0.00,vanprod-2.5,2015-05-23 14:40:00,
2015-05-23 10:45:00,66.8,54.2,30.38,SW,227,1.0,4.0,64,0.00,,,0.00,vanprod-2.5,2015-05-23 14:45:00,
2015-05-23 10:50:00,67.1,55.0,30.38,WSW,254,0.0,0.0,65,0.00,,,0.00,vanprod-2.5,2015-05-23 14:50:00,
2015-05-23 10:55:00,67.8,53.9,30.38,SSE,160,1.0,1.0,61,0.00,,,0.00,vanprod-2.5,2015-05-23 14:55:00,
2015-05-23 11:00:00,68.3,53.9,30.38,SSE,162,2.0,0.0,60,0.00,,,0.00,vanprod-2.5,2015-05-23 15:00:00,
2015-05-23 11:05:00,68.7,55.2,30.38,SSE,150,0.0,0.0,62,0.00,,,0.00,vanprod-2.5,2015-05-23 15:05:00,
2015-05-23 11:10:00,69.2,55.2,30.38,SSE,160,0.0,0.0,61,0.00,,,0.00,vanprod-2.5,2015-05-23 15:10:00,
2015-05-23 11:15:00,70.0,55.9,30.38,SSE,160,0.0,1.0,61,0.00,,,0.00,vanprod-2.5,2015-05-23 15:15:00,
2015-05-23 11:20:00,70.6,55.1,30.38,SSE,159,2.0,4.0,58,0.00,,,0.00,vanprod-2.5,2015-05-23 15:20:00,
2015-05-23 11:25:00,70.7,54.7,30.38,WNW,292,1.0,0.0,57,0.00,,,0.00,vanprod-2.5,2015-05-23 15:25:00,
2015-05-23 11:30:00,71.1,55.1,30.39,West,263,1.0,0.0,57,0.00,,,0.00,vanprod-2.5,2015-05-23 15:30:00,
2015-05-23 11:35:00,71.7,54.2,30.38,South,185,1.0,0.0,54,0.00,,,0.00,vanprod-2.5,2015-05-23 15:35:00,
2015-05-23 11:40:00,72.3,56.2,30.38,WNW,295,1.0,3.0,57,0.00,,,0.00,vanprod-2.5,2015-05-23 15:40:00,
2015-05-23 11:45:00,72.4,56.8,30.38,SSE,167,1.0,0.0,58,0.00,,,0.00,vanprod-2.5,2015-05-23 15:45:00,
2015-05-23 11:50:00,72.8,54.2,30.38,SW,228,1.0,0.0,52,0.00,,,0.00,vanprod-2.5,2015-05-23 15:50:00,
2015-05-23 11:55:00,73.5,55.9,30.38,WNW,284,1.0,2.0,54,0.00,,,0.00,vanprod-2.5,2015-05-23 15:55:00,
2015-05-23 12:00:00,73.4,49.6,30.38,SW,231,2.0,3.0,43,0.00,,,0.00,vanprod-2.5,2015-05-23 16:00:00,
2015-05-23 12:05:00,73.4,49.6,30.38,SSW,208,3.0,3.0,43,0.00,,,0.00,vanprod-2.5,2015-05-23 16:05:00,
2015-05-23 12:19:00,73.4,49.6,30.38,SSW,208,3.0,0.0,43,0.00,,,0.00,vanprod-2.5,2015-05-23 16:19:00,
2015-05-23 12:25:00,74.6,50.7,30.37,SSW,207,3.0,3.0,43,0.00,,,0.00,vanprod-2.5,2015-05-23 16:25:00,
2015-05-23 12:30:00,74.6,51.9,30.37,SSE,163,2.0,2.0,45,0.00,,,0.00,vanprod-2.5,2015-05-23 16:30:00,
2015-05-23 12:35:00,74.5,53.5,30.37,West,274,1.0,2.0,48,0.00,,,0.00,vanprod-2.5,2015-05-23 16:35:00,
2015-05-23 12:40:00,74.8,53.2,30.37,North,8,0.0,0.0,47,0.00,,,0.00,vanprod-2.5,2015-05-23 16:40:00,
2015-05-23 12:45:00,75.4,53.2,30.37,SSW,201,1.0,3.0,46,0.00,,,0.00,vanprod-2.5,2015-05-23 16:45:00,
2015-05-23 12:50:00,75.7,52.3,30.37,WSW,245,1.0,2.0,44,0.00,,,0.00,vanprod-2.5,2015-05-23 16:50:00,
2015-05-23 12:55:00,75.8,53.0,30.37,WSW,247,1.0,1.0,45,0.00,,,0.00,vanprod-2.5,2015-05-23 16:55:00,
2015-05-23 13:00:00,75.5,52.1,30.37,WNW,303,2.0,4.0,44,0.00,,,0.00,vanprod-2.5,2015-05-23 17:00:00,
2015-05-23 13:05:00,75.7,53.5,30.36,South,175,1.0,2.0,46,0.00,,,0.00,vanprod-2.5,2015-05-23 17:05:00,
2015-05-23 13:10:00,75.8,52.4,30.36,SSW,211,5.0,8.0,44,0.00,,,0.00,vanprod-2.5,2015-05-23 17:10:00,
2015-05-23 13:15:00,75.7,49.7,30.36,SSE,156,1.0,1.0,40,0.00,,,0.00,vanprod-2.5,2015-05-23 17:15:00,
2015-05-23 13:20:00,76.1,52.0,30.36,West,276,1.0,4.0,43,0.00,,,0.00,vanprod-2.5,2015-05-23 17:20:00,
2015-05-23 13:25:00,76.0,51.9,30.36,NW,320,1.0,1.0,43,0.00,,,0.00,vanprod-2.5,2015-05-23 17:25:00,
2015-05-23 13:30:00,76.3,52.2,30.36,SSW,199,5.0,7.0,43,0.00,,,0.00,vanprod-2.5,2015-05-23 17:30:00,
2015-05-23 13:35:00,76.2,51.5,30.35,SSE,152,1.0,3.0,42,0.00,,,0.00,vanprod-2.5,2015-05-23 17:35:00,